Regional Weather Roundup
Issued by NWS

Home | Current Version | Previous Version | Text Only | Print | Product List | Glossary Off
Versions: 1 2 3 4 5 6 7 8 9 10 11 12 13 14 15 16 17 18 19 20 21 22 23 24 25 26 27 28 29 30 31 32 33 34 35 36 37 38 39 40 41 42 43 44 45 46 47 48 49 50

000
ASUS43 KMKX 221600
RWRWI

WISCONSIN REGIONAL WEATHER ROUNDUP
NATIONAL WEATHER SERVICE MILWAUKEE/SULLIVAN WI
1100 AM CDT FRI AUG 22 2014

NOTE: "FAIR" INDICATES FEW OR NO CLOUDS BELOW 12,000 FEET WITH NO
SIGNIFICANT WEATHER AND/OR OBSTRUCTIONS TO VISIBILITY.

WIZ001-002-006>008-014>016-023>028-221700-
NORTHWEST WISCONSIN

CITY           SKY/WX    TMP DP  RH WIND       PRES   REMARKS
SUPERIOR ARPT  CLOUDY    60  60  99 NE10      29.99R FOG
ASHLAND        CLOUDY    65  62  90 NE9       29.98R FOG
HAYWARD        CLOUDY    70  68  93 N5        29.96R FOG
SIREN          CLOUDY    65  64  96 N5        29.97R FOG
RICE LAKE      CLOUDY    72  70  94 CALM      29.96R FOG
LADYSMITH      CLOUDY    71  70  96 CALM      29.97R FOG
EAU CLAIRE     NOT AVBL
MENOMONIE      CLOUDY    77  71  81 W3        29.93S
NEW RICHMOND   CLOUDY    71  68  92 N3        29.96R
OSCEOLA        CLOUDY    69  68  98 NW6       29.98R
$$

WIZ003>005-009-010-017-018-221700-
NORTH CENTRAL WISCONSIN

CITY           SKY/WX    TMP DP  RH WIND       PRES   REMARKS
WOODRUFF       CLOUDY    69  67  93 SE6       29.98S FOG
RHINELANDER    LGT RAIN  66  65  96 E5        29.99S FOG
EAGLE RIVER    CLOUDY    67  66  96 S3        29.99R
LAND O LAKES   LGT RAIN  67  66  96 SE5       30.00S
PHILLIPS       CLOUDY    69  67  95 CALM      29.96S
TOMAHAWK       CLOUDY    69  67  96 CALM      29.98R
MEDFORD        FOG       69  69 100 SE5       29.96R VSB 3/4
MERRILL        CLOUDY    67  67 100 E3        29.97R FOG
$$

WIZ029-030-035-036-043>047-221700-
CENTRAL WISCONSIN

CITY           SKY/WX    TMP DP  RH WIND       PRES   REMARKS
WAUSAU         CLOUDY    70  68  93 SE7       29.95R
MOSINEE        CLOUDY    70  70 100 SE5       29.97R FOG
MARSHFIELD     CLOUDY    73  72  96 S7        29.95S FOG
STEVENS POINT  CLOUDY    70  68  94 S5        29.96S FOG
WAUPACA        CLOUDY    73  72  94 SE5       29.96R FOG
WAUTOMA        NOT AVBL
WISC RAPIDS    CLOUDY    78  72  81 S7        29.96R HX  80
CAMP DOUGLAS   CLOUDY    75  75 100 S6        29.95R
$$

WIZ011>013-019>022-031-037>040-048>050-221700-
NORTHEAST WISCONSIN

CITY           SKY/WX    TMP DP  RH WIND       PRES   REMARKS
ANTIGO         LGT RAIN  66  66 100 SE5       29.99R
STURGEON BAY   CLOUDY    70  66  88 E6        29.98S
GREEN BAY      CLOUDY    75  70  84 VRB3      29.96R
MANITOWOC      FOG       70  70 100 E7        29.97S VSB 1/2
APPLETON       PTSUNNY   73  72  94 VRB6      29.97R FOG
CLINTONVILLE   CLOUDY    72  68  88 E3        29.95S FOG
OSHKOSH        CLOUDY    76  72  87 S5        29.96R
$$

WIZ032>034-041-042-053>061-221700-
SOUTHWEST WISCONSIN

CITY           SKY/WX    TMP DP  RH WIND       PRES   REMARKS
LA CROSSE      CLOUDY    78  73  84 SW3       29.93R HX  81
SPARTA         CLOUDY    76  72  87 S3        29.94S FOG
VIROQUA        CLOUDY    76  76 100 S3        29.96R
BOSCOBEL       PTSUNNY   83  74  74 CALM      29.94S HX  89
PRAIRIE DU CHI CLOUDY    78  73  83 CALM      29.93R HAZE    HX  80
PLATTEVILLE    CLOUDY    78  76  94 CALM      29.96R HX  80
$$

WIZ056-057-062-063-064-067-068-221700-
SOUTH CENTRAL WISCONSIN

CITY           SKY/WX    TMP DP  RH WIND       PRES   REMARKS
BARABOO/DELLS  PTSUNNY   82  72  71 S7        29.95S HX  86
LONE ROCK      NOT AVBL
WATERTOWN      CLOUDY    77  75  93 SW3       29.96R
MADISON        PTSUNNY   80  73  79 SE3       29.95S HX  84
MIDDLETON      CLOUDY    80  76  88 E3        29.96S HX  86
MONROE         CLOUDY    77  73  88 SE6       29.96S
JANESVILLE     CLOUDY    81  75  83 S6        29.95R HX  86
$$

WIZ051-052-058>065-066-070>072-221700-
SOUTHEAST WISCONSIN

CITY           SKY/WX    TMP DP  RH WIND       PRES   REMARKS
MILWAUKEE      CLOUDY    72  69  90 E6        29.98R FOG
WAUKESHA       MOSUNNY   79  72  78 CALM      29.97R HX  82
MILWAUKEE/TIMM PTSUNNY   75  68  78 E6        29.98R
RACINE         CLOUDY    73  69  87 E7        29.98S
BURLINGTON     PTSUNNY   76  73  90 CALM      29.97R
KENOSHA        CLOUDY    76  73  91 E8        29.97S
FOND DU LAC    SUNNY     79  71  76 SE5       29.96S HX  82
SHEBOYGAN      PTSUNNY   76  72  87 S7        29.97S FOG
WEST BEND      CLOUDY    72  70  94 E5        29.97R FOG
JUNEAU         MOSUNNY   75  51  43 SW6       29.97R
$$

LSZ147-162-221700-
LAKE SUPERIOR

STATION/POSITION TIME  TEMP    WIND        PRES    WAVE
                       AIR SEA DIR/SP/G            HT/PER
                 (UTC) (F)     (DEG/KT/KT) (MB)    (FT/S)
W MID LAKE BUOY  1450   57 58   40/ 14/ 16 1014.6R   2/ 4
DEVILS ISLAND    1500   59      60/ 11/ 12 1014.9R
PORT WING        1500   58      40/  9/ 11 1015.2R
SAXON HARBOR     1500   64        CALM     1014.6R
$$

LMZ867-665-643>646-221700-
LAKE MICHIGAN

STATION/POSITION TIME  TEMP    WIND        PRES    WAVE
                       AIR SEA DIR/SP/G            HT/PER
                 (UTC) (F)     (DEG/KT/KT) (MB)    (FT/S)
N MID LAKE BUOY  1450   66 65  120/  8/  8 1014.4F   0
NORTHPORT PIER   1500   66     130/  3/  3 1015.2R
SISTER BAY       1426   68     150/  7/  9   N/A
KEWAUNEE LAKESHO 1500   67      80/  2/  3 1014.0R
SHEBOYGAN LAKESH 1500   67 65  180/  4/  5 1014.8R
ATWATER BUOY     1500   69     110/  4/  6 1015.5R
MILWAUKEE LAKESH 1500   69      80/  7/  8   N/A
S MID LAKE BUOY  1450   70 69  140/  4/  6 1014.1F
KENOSHA   LAKESH 1500   71      90/  4/  4 1014.2R
$$

TC  - TEMPERATURE IN CELSIUS
VSB - VISIBILITY IN STATUTE MILES
WCI - WIND CHILL INDEX
HX  - HEAT INDEX




USA.gov is the U.S. government's official web portal to all federal, state and local government web resources and services.